Regional Weather Roundup
Issued by NWS

Home | Current Version | Previous Version | Text Only | Print | Product List | Glossary On
Versions: 1 2 3 4 5 6 7 8 9 10 11 12 13 14 15 16 17 18 19 20 21 22 23 24 25 26 27 28 29 30 31 32 33 34 35 36 37 38 39 40 41 42 43 44 45 46 47 48 49 50
000
ASUS43 KLMK 010810
RWRKY
KENTUCKY REGIONAL WEATHER ROUNDUP
NATIONAL WEATHER SERVICE LOUISVILLE KY
400 AM EDT TUE SEP 01 2015

NOTE "FAIR" INDICATES FEW OR NO CLOUDS BELOW 12,000 FEET
WITH NO SIGNIFICANT WEATHER AND/OR OBSTRUCTIONS TO VISIBILITY.

KYZ001>023-026-027-061>063-070>075-010900-
WESTERN AND SOUTH CENTRAL KENTUCKY

CITY           SKY/WX    TMP DP  RH WIND       PRES   REMARKS
PADUCAH        CLEAR     69  66  90 CALM      30.08S
HENDERSON      CLOUDY    66  63  88 CALM      30.08S
OWENSBORO      CLOUDY    71  69  93 CALM      30.10S
HOPKINSVILLE   CLEAR     67  65  94 CALM      30.10S
BOWLING GREEN  CLEAR     67  64  90 CALM      30.11S FOG
GLASGOW        CLEAR     65  65 100 CALM      30.12S FOG
$$

KYZ024-025-028>034-038-045-046-053-010900-
NORTH CENTRAL KENTUCKY

CITY           SKY/WX    TMP DP  RH WIND       PRES   REMARKS
LOUISVILLE/SDF CLEAR     72  65  78 CALM      30.10S
LOUISVILLE/LOU CLEAR     67  63  87 CALM      30.11S
FORT KNOX      CLEAR     64  63  96 CALM      30.10S
$$

KYZ035>037-039>044-047>052-055>060-089>105-010900-
NORTHEAST KENTUCKY

CITY           SKY/WX    TMP DP  RH WIND       PRES   REMARKS
LEXINGTON      CLEAR     66  63  90 S3        30.13S
COVINGTON      CLEAR     67  66  97 CALM      30.11S
FRANKFORT      CLEAR     65  62  90 CALM      30.11S
$$

KYZ054-064>069-076>088-106>120-010900-
SOUTHEAST KENTUCKY

CITY           SKY/WX    TMP DP  RH WIND       PRES   REMARKS
JACKSON        MOCLDY    71  65  81 CALM      30.14S
LONDON         CLEAR     66  62  87 CALM      30.14S
SOMERSET       CLEAR     63  63 100 CALM      30.14S FOG
MIDDLESBORO    CLEAR     63  63  99 CALM      30.15S
MONTICELLO     FOG       63  63 100 CALM      30.16S VSB 1/4
$$



USA.gov is the U.S. government's official web portal to all federal, state and local government web resources and services.